STARLINK-3087, 49175

Orbit data source: Space-Track

STARLINK-3087, 49175 is a payload satellite owned by SpaceX/Seattle (US) in LEO that was launched on Tue, 14 Sep 2021 UTC via an FALCON 9 launch vehicle from the Air Force Western Test Range (AFWTR). Payload-class satellites include a variety of spacecraft equipped with specific instruments for various scientific and technological missions. These include communications satellites like Starlink; space stations such as the ISS; scientific satellites like the Hubble; Earth observation satellites from companies like Planet Labs, Umbra, and HawkEye 360; GPS; miniature CubeSats for education and research; and military/defense satellites.

Loading next visibility...
Identifier
49175, 2021-082AX
Orbit
LEO
Country
Flag of USUS
Related business
Manufacturer
SpaceX/Seattle
Mission
Operational Commercial Communications
Bus & Motor
STARLINK, Unknown motor
Mass
297 kg wet, ~275 kg dry
Launch date (UTC)
2021-09-14 (5 years ago)
Launch vehicle
FALCON 9
Launch site
Air Force Western Test Range (AFWTR)
Object type
Payload
Rocket body
Debris
Shape & HBR
Box + 1 Pan, 10.1 m
Radar Cross Section
13.562 m², Large (>1 m²)

Expand to show TLE details & history
Last TLE update: 15 hours ago

TLE from 15 hours ago
0 STARLINK-3087
1 49175U 21082AX  26125.44966926 -.00000270  00000-0 -15236-4 0  9993
2 49175  69.9983 132.4463 0003571 269.2246  90.8504 14.97521514254941
Epoch: 2026-05-05T10:47Z
TLE epoch observation values (Epoch: 2026-05-05T10:47:31.424Z)
Latitude
0.00005°
Longitude
107.24104°
Altitude
577.018 km
Speed
7.572 km/s
True Right ascension
08h 49m 47s
True Declination
0° 00' 00"
Sunlit
Object was in daylight at epoch
Visualization orbit readout
Latitude
Unknown
Longitude
Unknown
Altitude
Unknown
Speed
Unknown
Apparent Right ascension
Unknown
Apparent Declination
Unknown
Sunlit
N/A
Visualization observer readout
Local Sidereal Time
09:53:08
Azimuth
Unknown
Elevation
Unknown
Doppler factor
Unknown
Orbital elements
Apogee altitude
574.988 km
Perigee altitude
570.024 km
Semi-major axis
6,950.643 km
Eccentricity
0.00036
Inclination
69.9983°
RAAN
132.4463°
Arg. of periapsis
269.2246°
True anomaly
90.89132°
Mean anomaly
90.8504°
Eccentric anomaly
90.87086°
Mean motion
3.74546 °/min
Orbital period
96.12 mins
BSTAR
-0.000015236
Loading maneuver chart data...
Computing Atmospheric mass density...
Loading historical data...
Loading historical data...
Loading historical data...
Loading historical data...
Loading historical data...
Loading historical data...
Loading historical data...

Documentation

Showing up to 5 results
|